Weather History for Redmond, OR

Change the Weather History Date:

Wednesday, August 7, 2013

  Actual Average Record
Temperature  
Mean Temperature 70 °F 67 °F  
Max Temperature 87 °F 87 °F 108 °F (1972)
Min Temperature 53 °F 47 °F 32 °F (1998)
Degree Days  
Heating Degree Days 0 2  
Month to date heating degree days 7 11  
Since 1 June heating degree days 212 297  
Since 1 July heating degree days 27 80  
Cooling Degree Days 5 3  
Month to date cooling degree days 22 27  
Year to date cooling degree days 237 153  
Since 1 June cooling degree days 228 148  
Growing Degree Days 20 (Base 50)    
Moisture  
Dew Point 38 °F    
Average Humidity 34    
Maximum Humidity 55    
Minimum Humidity 13    
Precipitation  
Precipitation T in 0.02 in 0.34 in (1976)
Month to date precipitation 0.03 0.11  
Year to date precipitation 1.95 5.34  
Sea Level Pressure  
Sea Level Pressure 29.95 in    
Wind  
Wind Speed 6 mph (WNW)    
Max Wind Speed 22 mph    
Max Gust Speed 29 mph    
Visibility 10 miles    
Events      
T = Trace of Precipitation, MM = Missing Value Source: NWS Daily Summary

Daily Weather History Graph

Daily Weather History Graph

Search for Another Location

Airport:

Trip Planner

Search our weather history database for the weather conditions in past years. The results will help you decide how hot, cold, wet, or windy it might be!

Date:

Astronomy

Aug. 07, 2013 Rise Set
Actual Time 5:59 AM PDT 8:20 PM PDT
Civil Twilight 5:26 AM PDT 8:52 PM PDT
Nautical Twilight 4:46 AM PDT 9:32 PM PDT
Astronomical Twilight 4:01 AM PDT 10:17 PM PDT
Moon 6:57 AM PDT (8/7) 8:25 PM PDT (8/7)
Length of Visible Light 15h 26m
Length of Day
14h 21m
New Moon, 1% of the Moon is Illuminated
Aug 7
New Moon
Aug 14
First Quarter
Aug 20
Full
Aug 28
Last Quarter
Sep 5
New

Hourly Weather History & Observations

Time (PDT) Temp. Dew Point Humidity Pressure Visibility Wind Dir Wind Speed Gust Speed Precip Events Conditions
12:56 AM 64.9 °F 39.0 °F 39% 29.92 in 10.0 mi Calm Calm - N/A   Clear
1:56 AM 59.0 °F 39.0 °F 48% 29.94 in 10.0 mi Calm Calm - N/A   Clear
2:56 AM 59.0 °F 39.9 °F 49% 29.93 in 10.0 mi Calm Calm - N/A   Clear
3:56 AM 54.0 °F 37.0 °F 53% 29.94 in 10.0 mi Calm Calm - N/A   Clear
4:56 AM 55.0 °F 39.0 °F 55% 29.95 in 10.0 mi South 5.8 mph - N/A   Clear
5:56 AM 55.9 °F 39.9 °F 55% 29.97 in 10.0 mi SW 6.9 mph - N/A   Clear
6:56 AM 57.9 °F 39.0 °F 49% 29.97 in 10.0 mi North 3.5 mph - N/A   Clear
7:56 AM 64.0 °F 39.0 °F 40% 29.97 in 10.0 mi Calm Calm - N/A   Clear
8:56 AM 70.0 °F 37.9 °F 31% 29.96 in 10.0 mi Calm Calm - N/A   Clear
9:56 AM 72.0 °F 37.0 °F 28% 29.94 in 10.0 mi NW 9.2 mph - N/A   Clear
10:56 AM 77.0 °F 36.0 °F 23% 29.96 in 10.0 mi Calm Calm - N/A   Clear
11:56 AM 79.0 °F 32.0 °F 18% 29.96 in 10.0 mi Calm Calm - N/A   Clear
12:56 PM 82.0 °F 30.9 °F 16% 29.95 in 10.0 mi WNW 3.5 mph - N/A   Clear
1:56 PM 82.9 °F 34.0 °F 17% 29.94 in 10.0 mi West 8.1 mph - 0.00 in   Scattered Clouds
2:56 PM 87.1 °F 30.9 °F 13% 29.93 in 10.0 mi NNW 9.2 mph - N/A   Clear
3:56 PM 84.0 °F 30.0 °F 14% 29.93 in 10.0 mi NW 16.1 mph 23.0 mph N/A   Partly Cloudy
4:56 PM 82.9 °F 37.0 °F 19% 29.92 in 10.0 mi WNW 17.3 mph - N/A   Partly Cloudy
5:56 PM 84.0 °F 39.0 °F 20% 29.92 in 10.0 mi NW 15.0 mph - N/A   Clear
6:56 PM 81.0 °F 39.0 °F 22% 29.92 in 10.0 mi WNW 19.6 mph 27.6 mph N/A   Clear
7:56 PM 75.9 °F 39.9 °F 27% 29.96 in 10.0 mi West 13.8 mph - N/A   Clear
8:56 PM 73.0 °F 41.0 °F 31% 29.98 in 10.0 mi NNW 3.5 mph - N/A   Clear
9:56 PM 70.0 °F 42.1 °F 36% 29.99 in 10.0 mi ENE 6.9 mph - N/A   Clear
10:56 PM 70.0 °F 42.1 °F 36% 29.96 in 10.0 mi Calm Calm - N/A   Scattered Clouds
11:56 PM 69.1 °F 41.0 °F 36% 29.95 in 10.0 mi SE 5.8 mph - N/A   Overcast